Regional Weather Roundup
Issued by NWS

Home | Current Version | Previous Version | Graphics & Text | Print | Product List | Glossary On
Versions: 1 2 3 4 5 6 7 8 9 10 11 12 13 14 15 16 17 18 19 20 21 22 23 24 25 26 27 28 29 30 31 32 33 34 35 36 37 38 39 40 41 42 43 44 45 46 47 48 49 50
000
ASUS44 KMEG 211310
RWRTN
TENNESSEE HOURLY STATE WEATHER ROUNDUP
NATIONAL WEATHER SERVICE MEMPHIS TN
800 AM CDT THU AUG 21 2014

TNZ002-004-019-021-049-052-054-088>092-211400-
WEST TENNESSEE

CITY           SKY/WX    TMP DP  RH WIND       PRES   REMARKS
MEMPHIS INTL   MOSUNNY   80  71  74 SW9       30.11R
NWS MEMPHIS      N/A     80 N/A N/A MISG        N/A
JACKSON        MOSUNNY   76  71  85 SW7       30.11R
DYERSBURG      SUNNY     81  66  61 CALM      30.09S
UNION CITY     SUNNY     79  73  83 SW6       30.07S
PARIS          SUNNY     75  70  83 SW8       30.10R
HUNTINGDON     MOSUNNY   77  71  81 SW6       30.10R
LEXINGTON      SUNNY     75  72  88 CALM      30.11R
SAVANNAH       SUNNY     79  79 100 SW6       30.13R
$$

TNZ008-025-027-028-033-062-065-066-211400-
NORTH MIDDLE TENNESSEE

CITY           SKY/WX    TMP DP  RH WIND       PRES   REMARKS
NASHVILLE      MOSUNNY   76  72  87 CALM      30.12R
PORTLAND       MOSUNNY   73  70  88 S6        30.10R
CLARKSVILLE    SUNNY     74  71  91 SW6       30.09R
SMYRNA         MOSUNNY   74  71  90 S6        30.13R
MURFREESBORO   MOSUNNY   75  70  85 S6        30.12R
COOKEVILLE     SUNNY     73  70  88 CALM      30.15R
GALLATIN       MOSUNNY   71  70  97 CALM      30.13R
CROSSVILLE     SUNNY     72  66  81 CALM      30.20R
$$

TNZ061-075-076-078-094-096-097-211400-
SOUTH MIDDLE TENNESSEE

CITY           SKY/WX    TMP DP  RH WIND       PRES   REMARKS
LEWISBURG      MOSUNNY   79  72  79 SW3       30.12S
FAYETTEVILLE   SUNNY     73  68  83 S7        30.15R
TULLAHOMA      SUNNY     75  68  78 SW3       30.16S
WINCHESTER     SUNNY     73  70  88 CALM      30.15S
MCMINNVILLE    SUNNY     73  73 100 CALM      30.16R
COLUMBIA       SUNNY     77  75  94 SW5       30.12R
SHELBYVILLE    SUNNY     75  72  88 S3        30.15R
$$

TNZ017-018-042-046-047-211400-
NORTHEAST TENNESSEE

CITY           SKY/WX    TMP DP  RH WIND       PRES   REMARKS
TRI CITIES     CLOUDY    68  64  87 CALM      30.20R FOG
ELIZABETHTON   SUNNY     64  63  94 VRB3      30.20S
$$

TNZ012-013-036-069-073-074-211400-
CENTRAL EAST TENNESSEE

CITY           SKY/WX    TMP DP  RH WIND       PRES   REMARKS
KNOXVILLE      NOT AVBL
OAK RIDGE      FOG       68  67  96 CALM      30.19R VSB 3/4
GATLINBURG     SUNNY     68  64  88 CALM      30.17S
MORRISTOWN     CLOUDY    66  66 100 CALM      30.20R
$$

TNZ083-085-099-211400-
SOUTHEAST TENNESSEE

CITY           SKY/WX    TMP DP  RH WIND       PRES   REMARKS
CHATTANOOGA    MOSUNNY   72  68  87 S3        30.16R
$$

SKY/WX REPORTED AS FAIR MEANS FEW OR NO CLOUDS BELOW
12 THOUSAND FEET.




USA.gov is the U.S. government's official web portal to all federal, state and local government web resources and services.